Regional Weather Roundup
Issued by NWS Cleveland, OH

Home | Current Version | Previous Version | Graphics & Text | Print | Product List | Glossary On
Versions: 1 2 3 4 5 6 7 8 9 10 11 12 13 14 15 16 17 18 19 20 21 22 23 24 25 26 27 28 29 30 31 32 33 34 35 36 37 38 39 40 41 42 43 44 45 46 47 48 49 50
000
ASUS41 KCLE 191410
RWRCLE
OHIO REGIONAL WEATHER ROUNDUP
NATIONAL WEATHER SERVICE CLEVELAND, OH
900 AM EST THU JAN 19 2017

NOTE: "FAIR" INDICATES FEW OR NO CLOUDS BELOW 12,000 FEET WITH NO
SIGNIFICANT WEATHER AND/OR OBSTRUCTIONS TO VISIBILITY.

OHZ001>008-015>018-024>027-034-035-043-044-191500-
   NORTHWEST OHIO

CITY           SKY/WX    TMP DP  RH WIND       PRES   REMARKS
DEFIANCE       CLOUDY    33  32  96 VRB3      30.08S
FINDLAY        CLOUDY    37  32  82 SW5       30.08R
TOLEDO EXPRESS CLOUDY    34  34 100 SW6       30.09R WCI  29
TOLEDO EXEC    CLOUDY    35  34  96 SW7       30.09R FOG     WCI  29
LIMA           CLOUDY    35  35 100 CALM      30.06S
$$

OHZ009>014-019>023-028>033-038-089-191500-
   NORTHEAST OHIO

CITY           SKY/WX    TMP DP  RH WIND       PRES   REMARKS
CLE-HOPKINS    CLOUDY    39  34  82 SW5       30.12S
CLE-LAKEFRONT  CLOUDY    37  34  89 SW7       30.10S
CUY CO. ARPT   CLOUDY    37  36  93 W7        30.10F
LORAIN-ELYRIA  CLOUDY    36  32  85 SW8       30.09F
ASHTABULA      CLOUDY    36  33  89 SW7       30.11R
AKRON-CANTON   CLOUDY    38  34  85 W8        30.09S FOG
WOOSTER        CLOUDY    37  34  89 W5        30.09F
MANSFIELD      CLOUDY    36  35  96 CALM      30.06F
YOUNGSTOWN     CLOUDY    36  33  89 SW6       30.10R
$$

OHZ042-051>053-060>062-070>072-077>081-191500-
  SOUTHWEST OHIO

CITY           SKY/WX    TMP DP  RH WIND       PRES   REMARKS
CINC-COVINGTON CLOUDY    38  37  97 SE6       30.07S FOG
CINC-LUNKEN    CLOUDY    37  37 100 CALM      30.09F
HAMILTON       CLOUDY    37  36  96 CALM      30.09S FOG
DAYTON         CLOUDY    37  35  92 SE3       30.07S FOG
WRIGHT-PAT AFB CLOUDY    38  37  93 SE6       30.07S
DAYTON GENERAL CLOUDY    38  35  89 SE6       30.06S
WILMINGTON     CLOUDY    37  35  92 SE6       30.07S
$$

OHZ036-037-039>041-045>050-054>059-063>069-073>076-082>088-191500-
  CENTRAL AND SOUTHEAST OHIO

CITY           SKY/WX    TMP DP  RH WIND       PRES   REMARKS
COLUMBUS       CLOUDY    39  35  86 SE6       30.09R
OSU AIRPORT    CLOUDY    38  36  92 S6        30.08R
BOLTON FIELD   CLOUDY    37  36  93 S3        30.09S
RICKENBACK AFB   N/A     37  37  98 CALM      30.09S
NEWARK         CLOUDY    39  35  86 CALM      30.09S
MARION         CLOUDY    37  34  89 SW3       30.09R
LANCASTER      CLOUDY    40  37  89 S3        30.10S
ZANESVILLE     CLOUDY    39  35  86 VRB5      30.10S
NEW PHILLY     NOT AVBL
$$




USA.gov is the U.S. government's official web portal to all federal, state and local government web resources and services.